Flag for Lithuania Weather past 2 weeks in Vilnius, Lithuania

Now
41 °F

Fog.


Feels Like: 41 °F
Forecast: 49 / 68 °F
Wind: 1 mph from South

Location: Vilnius Airport

Current Time: Aug 30, 2014 at 5:53:22 AM

Latest Report: Aug 30, 2014 at 5:20 AM


Visibility: 0 mi

Pressure: 30.01 "Hg

Humidity: 100%

Dew point: 41 °F

Location of VilniusLocation

Historic Weather in Vilnius — Graph

°F

Vilnius temperature yesterday

Maximum temperature yesterday: 63 °F (at 1:20 PM)
Minimum temperature yesterday: 50 °F (at 3:20 AM)
Average temperature yesterday: 56 °F

Past Weeks' High & Low Weather Summary

 TemperatureHumidityPressure
High73 °F (Aug 15, 3:50 PM)100% (Aug 16, 2:50 AM)30.01 "Hg (Aug 16, 2:50 AM)
Low41 °F (Aug 30, 4:20 AM)40% (Aug 20, 4:50 PM)29.59 "Hg (Aug 25, 2:50 AM)
Average57 °F80%29.82 "Hg
* Reported Aug 15 4:20 AM — Aug 30 4:50 AM, Vilnius, Weather by CustomWeather, © 2014

Note: Actual official high and low records may vary slightly from our data, if they occured in-between our weather recording intervals... More about our weather records

Advertising

Vilnius weather history for previous 24 hours

 ConditionsComfort  
Time TempWeatherWind HumidityBarometerVisibility
4:50 AM
Aug 30
43 °FFog.No wind100%30.01 "Hg0 mi
4:20 AM41 °FFog.1 mph100%30.01 "Hg0 mi
3:50 AM43 °FFog.1 mph100%29.98 "Hg0 mi
3:20 AM46 °FFog.1 mph100%29.98 "Hg0 mi
2:50 AM46 °FFog.1 mph100%29.98 "Hg0 mi
2:20 AM48 °FFog.1 mph100%29.98 "Hg0 mi
1:50 AM48 °FFog.2 mph100%29.98 "Hg0 mi
1:20 AM48 °FFog.1 mph100%29.98 "Hg1 mi
12:50 AM48 °FFog.1 mph100%29.98 "Hg0 mi
12:20 AM48 °FFog.1 mph100%29.98 "Hg0 mi
10:20 PM
Aug 29
54 °FFog.3 mph94%29.98 "Hg2 mi
9:50 PM55 °FPassing clouds.2 mph88%29.98 "Hg5 mi
9:20 PM59 °FPartly cloudy.2 mph77%29.98 "HgN/A
8:50 PM59 °FBroken clouds.2 mph72%29.98 "HgN/A
8:20 PM59 °FScattered showers. Broken clouds.3 mph77%29.98 "HgN/A
7:50 PM59 °FScattered showers. Broken clouds.6 mph77%29.98 "HgN/A
7:20 PM61 °FScattered showers. Broken clouds.7 mph72%29.95 "HgN/A
6:50 PM61 °FBroken clouds.8 mph72%29.95 "HgN/A
6:20 PM59 °FScattered showers. Broken clouds.7 mph72%29.95 "HgN/A
5:50 PM59 °FScattered showers. Broken clouds.12 mph77%29.95 "HgN/A
5:20 PM61 °FScattered showers. Broken clouds.9 mph68%29.95 "HgN/A
4:50 PM61 °FScattered showers. Broken clouds.13 mph68%29.95 "HgN/A
4:20 PM63 °FScattered showers. Broken clouds.16 mph64%29.95 "HgN/A
3:50 PM63 °FScattered showers. Broken clouds.8 mph68%29.95 "HgN/A
3:20 PM63 °FScattered showers. Broken clouds.10 mph64%29.95 "HgN/A
2:50 PM63 °FScattered showers. Broken clouds.12 mph64%29.95 "HgN/A
2:20 PM63 °FScattered showers. Broken clouds.13 mph68%29.95 "HgN/A
1:50 PM61 °FScattered showers. Broken clouds.15 mph68%29.95 "HgN/A
1:20 PM63 °FScattered showers. Broken clouds.15 mph68%29.95 "HgN/A
12:50 PM61 °FScattered showers. Broken clouds.13 mph72%29.95 "HgN/A
12:20 PM59 °FBroken clouds.14 mph77%29.95 "HgN/A
11:50 AM59 °FBroken clouds.10 mph82%29.95 "HgN/A
11:20 AM57 °FBroken clouds.14 mph82%29.95 "HgN/A
10:50 AM57 °FBroken clouds.10 mph82%29.95 "HgN/A
10:20 AM57 °FBroken clouds.10 mph88%29.95 "HgN/A
9:50 AM55 °FBroken clouds.10 mph88%29.95 "Hg4 mi
9:20 AM54 °FFog.10 mph94%29.95 "Hg2 mi
8:50 AM54 °FFog.12 mph88%29.92 "Hg2 mi
8:20 AM52 °FFog.9 mph94%29.92 "Hg2 mi
7:50 AM52 °FPartly sunny.9 mph94%29.92 "Hg4 mi
7:20 AM52 °FPartly sunny.7 mph88%29.92 "Hg4 mi
6:50 AM50 °FPassing clouds.6 mph94%29.92 "Hg4 mi
6:20 AM50 °FPassing clouds.7 mph94%29.92 "Hg4 mi
5:50 AM50 °FPassing clouds.7 mph94%29.92 "Hg4 mi
5:20 AM50 °FPassing clouds.7 mph94%29.92 "Hg4 mi
Weather by CustomWeather, © 2014

See weather overviewHow to use our weather pages